This is the latest recevied weather packets stored in our database for station/object W5CDN. If no packets are shown the sender has not sent any weather packets the latest 10 day(s).
| Time | Temp. | Humidity | Pressure | Rain* | Wind** | Luminosity | Snow |
|---|---|---|---|---|---|---|---|
| 1787514990 | 38.33° C | 44% | 1012.9 hPa | 0 mm | - | - | - |
| 1787514690 | 37.78° C | 45% | 1012.9 hPa | 0 mm | - | - | - |
| 1787514390 | 37.78° C | 44% | 1013 hPa | 0 mm | - | - | - |
| 1787514090 | 37.22° C | 44% | 1013 hPa | 0 mm | - | - | - |
| 1787513790 | 37.22° C | 45% | 1013 hPa | 0 mm | - | - | - |
| 1787513490 | 36.67° C | 47% | 1012.9 hPa | 0 mm | - | - | - |
| 1787513190 | 36.67° C | 46% | 1013.3 hPa | 0 mm | - | - | - |
| 1787512890 | 37.22° C | 46% | 1013.3 hPa | 0 mm | - | - | - |
| 1787512590 | 36.67° C | 47% | 1013.2 hPa | 0 mm | - | - | - |
| 1787512290 | 36.11° C | 48% | 1013.6 hPa | 0 mm | - | - | - |
| 1787511990 | 35.56° C | 50% | 1013.5 hPa | 0 mm | - | - | - |
| 1787511690 | 36.11° C | 49% | 1013.6 hPa | 0 mm | - | - | - |
| 1787511390 | 35° C | 51% | 1013.9 hPa | 0 mm | - | - | - |
| 1787511090 | 34.44° C | 54% | 1014 hPa | 0 mm | - | - | - |
| 1787510790 | 34.44° C | 56% | 1014 hPa | 0 mm | - | - | - |
| 1787510490 | 33.89° C | 57% | 1014.2 hPa | 0 mm | - | - | - |
| 1787510190 | 33.33° C | 57% | 1014.2 hPa | 0 mm | - | - | - |
| 1787509890 | 32.22° C | 60% | 1014.4 hPa | 0 mm | - | - | - |
| 1787509590 | 31.67° C | 62% | 1014.5 hPa | 0 mm | - | - | - |
| 1787509290 | 31.67° C | 65% | 1014.5 hPa | 0 mm | - | - | - |
| 1787508990 | 31.67° C | 65% | 1014.7 hPa | 0 mm | - | - | - |
| 1787508690 | 31.67° C | 64% | 1014.5 hPa | 0 mm | - | - | - |
| 1787508390 | 31.67° C | 68% | 1014.8 hPa | 0 mm | - | - | - |
| 1787508090 | 31.67° C | 72% | 1014.8 hPa | 0 mm | - | - | - |
| 1787507790 | 31.67° C | 72% | 1014.9 hPa | 0 mm | - | - | - |
* Rain latest hour (hover to see other rain measurements)
** Current wind speed in m/s (hover to see current wind gust speed)